User: anonymous   Login
Location: NJAA Observatory
(40.6819°N, 74.8979°W)
Time: 16:05:35
(UTC-04:00)
Language:

Iridium 84 - Orbit

View from above orbital plane
View from above orbital plane
View from above satellite
View from above satellite

Ground track
Ground track

The orbit data is extracted from the following two-line orbital elements,

1 25530U 98066D   16181.39525038  .00000127  00000-0  38275-4 0  9995
2 25530  86.3974 137.4786 0002242  85.6996 274.4456 14.34219285926438
Epoch (UTC): 29 June 2016 09:29:09
Eccentricity: 0.0002242
inclination: 86.3974°
perigee height: 776 km
apogee height: 779 km
right ascension of ascending node: 137.4786°
argument of perigee: 85.6996°
revolutions per day: 14.34219285
mean anomaly at epoch: 274.4456°
orbit number at epoch: 92643

The dashed part of the orbit path shows where the satellite is in the earth's shadow,  

DLR